Location: Unspecified
(42.3650°N, 71.1030°W)
Time: 11:26:54
(UTC+00:00)

Courier 1B - Pass Details

Date: 04 July 2024
Orbit: 962 x 1209 km, 28.3° (Epoch: 13 July)

Event Time Altitude Azimuth Distance (km) Brightness Sun altitude
Rises 22:58:50 0° 208° (SSW) 3,674 10.6 13.4°
Reaches altitude 10° 23:03:34 10° 178° (S) 2,696 9.7 12.6°
Maximum altitude 23:05:44 12° 158° (SSE) 2,562 9.4 12.2°
Drops below altitude 10° 23:07:52 10° 138° (SE) 2,685 9.3 11.8°
Sets 23:12:33 0° 108° (ESE) 3,636 9.8 11.0°
